{"data":{"norad_id":64193,"epoch":"2026-05-25T03:24:51.087744Z","epoch_age_seconds":58714,"freshness":"FRESH","line1":"1 64193U 25113Z   26145.14225796  .00027364  00000+0  81842-3 0  9996","line2":"2 64193  53.1598  95.0738 0001315  98.9936 261.1216 15.34386047 56744","mean_motion":15.34386047,"eccentricity":0.0001315,"inclination_deg":53.1598,"raan_deg":95.0738,"arg_perigee_deg":98.9936,"mean_anomaly_deg":261.1216,"bstar":0.00081842,"rev_number":5674,"period_min":93.848611489622,"perigee_km":461.84513583274,"apogee_km":463.64428772293,"semimajor_km":6840.8817117778,"source":"CELESTRAK","updated_at":"2026-05-25T13:38:20.314901Z"}}